This is the latest recevied weather packets stored in our database for station/object N9ALD. If no packets are shown the sender has not sent any weather packets the latest 10 day(s).
| Time | Temp. | Humidity | Pressure | Rain* | Wind** | Luminosity | Snow |
|---|---|---|---|---|---|---|---|
| 1777650562 | 7.78° C | 76% | 1012.8 hPa | 0 mm | - | 185 W/m² | - |
| 1777650260 | 7.78° C | 77% | 1012.6 hPa | 0 mm | - | 150 W/m² | - |
| 1777649956 | 8.33° C | 77% | 1012.6 hPa | 0 mm | - | 202 W/m² | - |
| 1777649654 | 8.33° C | 78% | 1012.3 hPa | 0 mm | - | 194 W/m² | - |
| 1777649349 | 8.33° C | 77% | 1012.3 hPa | 0 mm | - | 172 W/m² | - |
| 1777649047 | 8.33° C | 75% | 1012.2 hPa | 0 mm | - | 210 W/m² | - |
| 1777648745 | 8.33° C | 75% | 1012.1 hPa | 0 mm | - | 158 W/m² | - |
| 1777648441 | 8.33° C | 76% | 1012 hPa | 0 mm | - | 155 W/m² | - |
| 1777648137 | 8.33° C | 76% | 1012.1 hPa | 0 mm | - | 307 W/m² | - |
| 1777647833 | 8.33° C | 77% | 1011.8 hPa | 0 mm | - | 262 W/m² | - |
| 1777647530 | 8.33° C | 81% | 1011.9 hPa | 0 mm | - | 154 W/m² | - |
| 1777647227 | 8.89° C | 78% | 1011.8 hPa | 0 mm | - | 176 W/m² | - |
| 1777646924 | 9.44° C | 79% | 1011.8 hPa | 0 mm | - | 226 W/m² | - |
| 1777646619 | 9.44° C | 81% | 1011.7 hPa | 0 mm | - | 684 W/m² | - |
| 1777646316 | 9.44° C | 79% | 1011.4 hPa | 0 mm | - | 594 W/m² | - |
| 1777646012 | 9.44° C | 79% | 1011.5 hPa | 0 mm | - | 599 W/m² | - |
| 1777645709 | 10° C | 77% | 1011.3 hPa | 0 mm | - | 494 W/m² | - |
| 1777645406 | 9.44° C | 78% | 1011.3 hPa | 0 mm | - | 253 W/m² | - |
| 1777645101 | 9.44° C | 79% | 1011.3 hPa | 0 mm | - | 516 W/m² | - |
| 1777644798 | 8.89° C | 79% | 1011.2 hPa | 0 mm | - | 530 W/m² | - |
| 1777644496 | 8.89° C | 78% | 1011.3 hPa | 0 mm | - | 214 W/m² | - |
| 1777644192 | 8.89° C | 79% | 1011.2 hPa | 0 mm | - | 556 W/m² | - |
| 1777643889 | 8.89° C | 77% | 1011 hPa | 0 mm | - | 210 W/m² | - |
| 1777643587 | 8.89° C | 82% | 1011 hPa | 0 mm | - | 203 W/m² | - |
| 1777643283 | 8.89° C | 83% | 1011 hPa | 0 mm | - | 148 W/m² | - |
* Rain latest hour (hover to see other rain measurements)
** Current wind speed in m/s (hover to see current wind gust speed)